GW2624 Weather Reports


Display with metric or nautical units.
time (UTC)temp
F
wind
direction
speed
MPH
gust
MPH
rain 1hr
in
rain 24hr
in
rain mn
in
humidity
%
barometer
mb
20260505222905 60 175 5.0 12.0 0.00 0.00 0.00 43 999.9
20260505222404 60 168 6.0 12.0 0.00 0.00 0.00 43 1000.0
20260505221905 60 125 3.0 9.0 0.00 0.00 0.00 43 1000.0
20260505220904 60 214 3.0 8.0 0.00 0.00 0.00 43 1000.1
20260505214405 62 194 3.0 8.0 0.00 0.00 0.00 40 1000.3
20260505213405 61 255 3.0 12.0 0.00 0.00 0.00 43 1000.5
20260505212905 61 235 5.0 12.0 0.00 0.00 0.00 42 1000.6
20260505212405 61 225 3.0 9.0 0.00 0.00 0.00 43 1000.7
20260505211905 61 260 4.0 10.0 0.00 0.00 0.00 42 1000.7
20260505210905 61 220 3.0 12.0 0.00 0.00 0.00 43 1000.9
20260505210404 61 255 6.0 12.0 0.00 0.00 0.00 43 1000.9
20260505204905 59 216 3.0 9.0 0.00 0.00 0.00 46 1001.2
20260505202905 57 208 3.0 9.0 0.00 0.00 0.00 49 1001.5
20260505202405 58 176 4.0 7.0 0.00 0.00 0.00 50 1001.8
20260505201904 57 239 2.0 8.0 0.00 0.00 0.00 52 1001.7
20260505200905 57 189 3.0 12.0 0.00 0.00 0.00 55 1001.6
20260505194905 58 200 4.0 13.0 0.00 0.00 0.00 49 1001.6
20260505194405 58 258 3.0 12.0 0.00 0.00 0.00 52 1001.5
20260505193905 57 176 3.0 12.0 0.00 0.00 0.00 53 1001.5
20260505192904 56 235 3.0 8.0 0.00 0.00 0.00 59 1001.5
20260505192405 55 294 2.0 8.0 0.00 0.00 0.00 63 1001.5
20260505191905 54 235 2.0 8.0 0.00 0.00 0.00 68 1001.6
20260505190904 56 291 3.0 12.0 0.00 0.00 0.00 55 1001.8
20260505185905 60 193 5.0 12.0 0.00 0.00 0.00 39 1001.4
20260505185405 60 194 5.0 12.0 0.00 0.00 0.00 39 1001.0
20260505183405 59 159 7.0 13.0 0.00 0.00 0.00 38 1001.1
20260505181905 59 146 3.0 12.0 0.00 0.00 0.00 38 1001.0
20260505180905 60 232 3.0 10.0 0.00 0.00 0.00 39 1000.9
20260505175905 60 207 3.0 8.0 0.00 0.00 0.00 39 1001.0
20260505175405 59 165 2.0 6.0 0.00 0.00 0.00 40 1001.0
20260505174905 59 222 3.0 6.0 0.00 0.00 0.00 39 1001.3
20260505173405 59 49 2.0 8.0 0.00 0.00 0.00 39 1001.5
20260505170905 56 190 2.0 9.0 0.00 0.00 0.00 42 1001.7
20260505170405 56 124 3.0 7.0 0.00 0.00 0.00 41 1001.8
20260505165405 55 146 1.0 7.0 0.00 0.00 0.00 42 1002.0
20260505164404 55 191 3.0 9.0 0.00 0.00 0.00 43 1002.2
20260505163405 55 225 1.0 6.0 0.00 0.00 0.00 41 1002.3
20260505162905 55 193 2.0 8.0 0.00 0.00 0.00 42 1002.3
20260505162405 55 0 4.0 8.0 0.00 0.00 0.00 43 1002.3
20260505161404 55 0 1.0 3.0 0.00 0.00 0.00 42 1002.5
20260505160405 54 0 0.0 3.0 0.00 0.00 0.00 40 1002.5
20260505152405 54 213 2.0 5.0 0.00 0.00 0.00 46 1002.5
20260505151404 54 178 2.0 5.0 0.00 0.00 0.00 46 1002.5
20260505150905 54 196 2.0 5.0 0.00 0.00 0.00 46 1002.6
20260505150404 54 0 2.0 5.0 0.00 0.00 0.00 46 1002.7
20260505140405 56 212 2.0 7.0 0.00 0.00 0.00 46 1002.8
20260505124904 48 205 0.0 2.0 0.00 0.00 0.00 52 1003.0
20260505124405 47 205 0.0 7.0 0.00 0.00 0.00 51 1003.1
20260505122405 46 153 0.0 2.0 0.00 0.00 0.00 55 1002.8
20260505121905 46 153 1.0 3.0 0.00 0.00 0.00 54 1002.6
20260505120905 46 180 1.0 3.0 0.00 0.00 0.00 55 1002.5
20260505120405 46 200 1.0 3.0 0.00 0.00 0.00 54 1002.3
20260505115905 46 307 1.0 2.0 0.00 0.00 0.00 54 1002.4
20260505115405 46 307 1.0 3.0 0.00 0.00 0.00 54 1002.3
20260505114405 46 201 1.0 2.0 0.00 0.00 0.00 55 1002.5
20260505113404 47 179 1.0 2.0 0.00 0.00 0.00 55 1002.6
20260505112405 47 179 1.0 3.0 0.00 0.00 0.00 55 1002.6
20260505111905 47 179 1.0 3.0 0.00 0.00 0.00 55 1002.6
20260505111405 47 184 2.0 3.0 0.00 0.00 0.00 56 1002.5
20260505110404 47 229 0.0 2.0 0.00 0.00 0.00 55 1002.5
20260505100905 49 287 1.0 2.0 0.00 0.00 0.00 51 1002.1
20260505094405 49 270 0.0 1.0 0.00 0.00 0.00 48 1002.0
20260505093405 50 270 0.0 0.0 0.00 0.00 0.00 47 1001.8
20260505092404 50 270 0.0 1.0 0.00 0.00 0.00 47 1001.8
20260505091905 50 270 0.0 1.0 0.00 0.00 0.00 45 1001.7
20260505084905 52 270 0.0 2.0 0.00 0.00 0.00 41 1002.2
20260505083404 54 270 1.0 2.0 0.00 0.00 0.00 38 1002.4
20260505082904 54 270 1.0 2.0 0.00 0.00 0.00 38 1002.7
20260505081905 55 270 0.0 1.0 0.00 0.00 0.00 36 1003.1
20260505081405 55 270 0.0 1.0 0.00 0.00 0.00 36 1003.0
20260505071905 58 309 2.0 8.0 0.00 0.00 0.00 31 1002.3
20260505071404 58 237 2.0 7.0 0.00 0.00 0.00 31 1002.2
20260505070904 58 266 2.0 5.0 0.00 0.00 0.00 30 1002.4
20260505065405 58 223 2.0 5.0 0.00 0.00 0.00 31 1002.6
20260505064405 58 253 2.0 6.0 0.00 0.00 0.00 32 1002.5
20260505062905 58 201 1.0 5.0 0.00 0.00 0.00 33 1002.6
20260505062404 58 250 1.0 5.0 0.00 0.00 0.00 33 1002.7
20260505061905 58 219 1.0 3.0 0.00 0.00 0.00 33 1002.7
20260505061404 58 240 1.0 8.0 0.00 0.00 0.00 33 1002.6
20260505060405 57 218 3.0 5.0 0.00 0.00 0.00 34 1002.7
20260505055904 57 202 1.0 5.0 0.00 0.00 0.00 36 1002.7
20260505055405 56 190 2.0 5.0 0.00 0.00 0.00 38 1002.8
20260505054405 56 185 0.0 2.0 0.00 0.00 0.00 40 1002.5
20260505053904 56 185 0.0 3.0 0.00 0.00 0.00 38 1002.5
20260505052904 56 173 1.0 3.0 0.00 0.00 0.00 38 1002.4
20260505051904 56 207 1.0 2.0 0.00 0.00 0.00 41 1002.4
20260505050905 56 227 0.0 2.0 0.00 0.00 0.00 39 1002.4
20260505050404 56 227 0.0 2.0 0.00 0.00 0.00 40 1002.5
20260505041404 60 227 0.0 2.0 0.00 0.00 0.00 30 1002.6
20260505035905 61 258 1.0 2.0 0.00 0.00 0.00 29 1002.8
20260505034905 61 231 0.0 3.0 0.00 0.00 0.00 29 1003.0
20260505033906 61 279 1.0 5.0 0.00 0.00 0.00 28 1002.8
20260505033404 61 182 1.0 5.0 0.00 0.00 0.00 28 1002.8
20260505032405 61 172 0.0 5.0 0.00 0.00 0.00 28 1002.7
20260505031904 61 180 0.0 5.0 0.00 0.00 0.00 27 1002.6
20260505030904 61 119 1.0 7.0 0.00 0.00 0.00 26 1002.3
20260505030404 61 119 1.0 7.0 0.00 0.00 0.00 26 1002.4
20260505025905 61 285 2.0 7.0 0.00 0.00 0.00 25 1002.2
20260505025405 61 72 0.0 3.0 0.00 0.00 0.00 26 1002.1
20260505024906 62 64 0.0 3.0 0.00 0.00 0.00 26 1002.1
20260505024405 62 348 1.0 7.0 0.00 0.00 0.00 26 1002.1
20260505022905 62 207 1.0 6.0 0.00 0.00 0.00 24 1001.9
20260505022405 63 295 0.0 6.0 0.00 0.00 0.00 24 1001.9
20260505020904 63 0 1.0 5.0 0.00 0.00 0.00 23 1001.8
20260505020404 64 0 1.0 3.0 0.00 0.00 0.00 22 1001.8
20260505015904 64 0 1.0 3.0 0.00 0.00 0.00 21 1001.9
20260505015405 64 0 1.0 3.0 0.00 0.00 0.00 21 1002.0
20260505014904 64 0 2.0 3.0 0.00 0.00 0.00 21 1001.9
20260505013404 65 0 1.0 5.0 0.00 0.00 0.00 20 1001.5
20260505011905 65 320 3.0 9.0 0.00 0.00 0.00 20 1001.3
20260505011405 66 242 1.0 9.0 0.00 0.00 0.00 20 1001.3
20260505010905 66 195 2.0 6.0 0.00 0.00 0.00 19 1001.3
20260505010404 66 212 2.0 8.0 0.00 0.00 0.00 19 1001.4
20260505005905 66 206 3.0 8.0 0.00 0.00 0.00 19 1001.3
20260505005405 66 242 2.0 12.0 0.00 0.00 0.00 19 1001.4
20260505004904 66 180 3.0 12.0 0.00 0.00 0.00 19 1001.4
20260505004404 67 259 2.0 12.0 0.00 0.00 0.00 19 1001.5
20260505002905 67 221 3.0 9.0 0.00 0.00 0.00 18 1001.5
20260505002404 67 253 2.0 7.0 0.00 0.00 0.00 19 1001.5
20260505001905 67 259 3.0 7.0 0.00 0.00 0.00 19 1001.4
20260505001404 67 305 3.0 6.0 0.00 0.00 0.00 20 1001.4
20260505000904 67 219 0.0 7.0 0.00 0.00 0.00 20 1001.5
20260505000405 67 160 2.0 10.0 0.00 0.00 0.00 20 1001.6
20260504235905 67 223 2.0 10.0 0.00 0.00 0.00 20 1001.6
20260504235405 67 276 3.0 7.0 0.00 0.00 0.00 20 1001.6
20260504234405 67 319 1.0 6.0 0.00 0.00 0.00 21 1001.8
20260504233904 68 203 2.0 6.0 0.00 0.00 0.00 20 1001.8
20260504233405 68 278 1.0 6.0 0.00 0.00 0.00 20 1001.8
20260504232904 68 0 1.0 6.0 0.00 0.00 0.00 20 1001.7
20260504230905 68 252 6.0 15.0 0.00 0.00 0.00 20 1001.8
20260504225904 68 265 2.0 6.0 0.00 0.00 0.00 20 1002.1
20260504225405 67 152 2.0 6.0 0.00 0.00 0.00 19 1002.1
20260504224405 67 247 1.0 7.0 0.00 0.00 0.00 19 1002.4